[[{"header":{"parameterUnit":"m.s-1","parameterCategory":1,"la1":30.2991,"la2":30.254,"lo1":-89.0895,"lo2":-89.0444,"dy":0.0017,"dx":0.0017,"nx":28,"ny":28,"refTime":"2023-11-23T03:00:00:Z","depth":0,"parameterNumber":2,"parameterNumberName":"U-component_of_WINDS"},"data":[0,0,0,0,0,0,0,0,0,0,0,0,0,0,0,0,0,0,0,0,0,0,0,0,0,0,0,0,0,0,0,0,0,0,0,0,0,0,0,0,0,0,0,0,0,0,0,0,0,0,0,0,0,0,0,0,0,0,-0.372,-0.3719,0,-0.3667,-0.3667,-0.3666,-0.3607,-0.3606,-0.3605,-0.3604,-0.3553,-0.3553,-0.3552,0,0,0,0,0,0,0,0,0,0,0,0,0,-0.3773,-0.3772,-0.372,-0.3719,-0.3719,-0.3667,-0.3667,-0.3666,-0.3607,-0.3606,-0.3605,-0.3604,-0.3553,-0.3553,-0.3552,0,0,0,0,0,0,0,0,0,0,0,0,0,-0.3738,-0.3772,-0.372,-0.3683,-0.3679,-0.3667,-0.3666,-0.3666,-0.3607,-0.3606,-0.3605,-0.3603,-0.3553,-0.3553,-0.3552,-0.3573,0,0,-0.3549,-0.3549,0,0,0,0,0,0,0,0,-0.374,-0.3736,-0.3689,-0.3686,-0.3681,-0.3642,-0.3666,-0.3635,-0.3608,-0.3635,-0.3604,-0.3603,-0.3584,-0.3581,-0.3574,-0.3571,-0.3569,-0.3549,-0.3549,-0.3548,-0.3548,0,0,0,0,0,0,0,-0.3742,-0.3738,-0.3699,-0.3689,-0.3684,-0.367,-0.3664,-0.366,-0.3617,-0.3632,-0.3628,-0.3622,-0.3582,-0.3575,-0.3572,-0.3568,-0.3549,-0.3549,-0.3548,-0.3548,-0.358,-0.3581,0,0,0,0,0,0,-0.375,-0.374,-0.3701,-0.3698,-0.3708,-0.367,-0.3663,-0.3656,-0.3617,-0.361,-0.3623,-0.362,-0.3577,-0.3573,-0.357,-0.3592,-0.3548,-0.3548,-0.3547,-0.3578,-0.358,-0.3582,0,0,0,0,0,0,-0.3751,-0.3747,-0.3703,-0.3718,-0.3711,-0.3671,-0.3663,-0.3656,-0.3649,-0.3611,-0.3603,-0.3624,-0.3575,-0.3571,-0.3573,-0.359,-0.3547,-0.3547,-0.3577,-0.3579,-0.3581,-0.3638,0,0,0,0,0,0,-0.3753,-0.3748,-0.3755,-0.3718,-0.371,-0.3706,-0.3664,-0.3656,-0.3647,-0.3642,-0.3609,-0.3602,-0.3574,-0.3574,-0.3572,-0.3588,-0.3546,-0.3575,-0.3578,-0.358,-0.3634,-0.3641,-0.3648,0,0,0,0,0,-0.3755,-0.3774,-0.3756,-0.3751,-0.3718,-0.3707,-0.3703,-0.3669,-0.3649,-0.3656,-0.3631,-0.3603,-0.3588,-0.3575,-0.3572,-0.3588,-0.3574,-0.3577,-0.358,-0.3631,-0.364,-0.3647,0,0,0,0,0,0,-0.3815,-0.3768,-0.3748,-0.3755,-0.3735,-0.3697,-0.3705,-0.3679,-0.3666,-0.3662,-0.3621,-0.3614,-0.3621,-0.3604,-0.359,-0.3606,-0.3577,-0.358,-0.3617,-0.3625,-0.3632,-0.3636,-0.3545,0,0,0,0,0,-0.3829,-0.3822,-0.3782,-0.3793,-0.3784,-0.3746,-0.374,-0.3716,-0.3694,-0.3686,-0.3661,-0.3642,-0.3633,-0.3628,-0.3618,-0.3631,-0.3624,-0.3641,-0.3648,-0.3653,-0.3656,-0.3662,-0.367,-0.3591,-0.3591,-0.3591,0,0,-0.3858,-0.3831,-0.383,-0.3804,-0.3786,-0.3781,-0.374,-0.3737,-0.3733,-0.3686,-0.3685,-0.3667,-0.3643,-0.3651,-0.3653,-0.3637,-0.3676,-0.3657,-0.3662,-0.3662,-0.3666,-0.3674,-0.368,-0.3594,-0.3593,-0.3593,0,0,-0.3908,-0.3887,-0.3893,-0.3875,-0.3848,-0.3823,-0.3825,-0.379,-0.3776,-0.3774,-0.3739,-0.3734,-0.3719,-0.3704,-0.3694,-0.3738,-0.3712,-0.3735,-0.3771,-0.3777,-0.3784,-0.3789,-0.3805,-0.3811,-0.3738,-0.3738,-0.3738,0,-0.3947,-0.3938,-0.39,-0.3898,-0.3888,-0.3844,-0.385,-0.3835,-0.3807,-0.3801,-0.3784,-0.3764,-0.3744,-0.3748,-0.3759,-0.3752,-0.3753,-0.3739,-0.3786,-0.3791,-0.3795,-0.381,-0.3816,-0.3741,-0.3741,-0.3741,-0.374,0,-0.3988,-0.3982,-0.399,-0.3962,-0.3953,-0.3956,-0.3919,-0.3914,-0.389,-0.3868,-0.3867,-0.3842,-0.3826,-0.3825,-0.3802,-0.3825,-0.3816,-0.3793,-0.3763,-0.3806,-0.3819,-0.3825,-0.3746,-0.3745,-0.3744,-0.3743,0,0,-0.4075,-0.4025,-0.4029,-0.4016,-0.3982,-0.3977,-0.3978,-0.3961,-0.3958,-0.394,-0.394,-0.3928,-0.3906,-0.3895,-0.387,-0.3875,-0.3912,-0.3851,-0.385,-0.3864,-0.3936,-0.3955,-0.3962,-0.3894,-0.3895,-0.3896,-0.3938,0,-0.412,-0.4117,-0.4083,-0.4091,-0.4085,-0.4043,-0.4043,-0.4023,-0.4002,-0.3994,-0.3971,-0.3963,-0.3934,-0.3927,-0.3931,-0.3907,-0.3926,-0.3903,-0.3895,-0.3895,-0.3903,-0.3969,-0.3988,-0.403,-0.3943,-0.3944,-0.3945,0,-0.4172,-0.4155,-0.4162,-0.4128,-0.4124,-0.4125,-0.4107,-0.41,-0.4077,-0.406,-0.4048,-0.4019,-0.4018,-0.3989,-0.3988,-0.3973,-0.3968,-0.3955,-0.3956,-0.3955,-0.3923,-0.397,-0.4042,-0.4049,-0.3953,-0.3952,-0.3951,0,-0.4235,-0.4214,-0.4216,-0.4206,-0.4166,-0.4168,-0.4151,-0.4126,-0.4118,-0.4102,-0.4097,-0.4082,-0.4074,-0.4063,-0.4031,-0.4013,-0.4034,-0.4002,-0.4021,-0.4022,-0.4028,-0.4028,-0.4101,-0.4024,-0.4024,-0.4023,-0.4023,0,-0.4289,-0.4295,-0.4244,-0.4245,-0.4251,-0.4211,-0.4218,-0.4198,-0.4176,-0.4173,-0.4135,-0.4134,-0.4091,-0.4085,-0.406,-0.4063,-0.406,-0.4047,-0.4041,-0.4051,-0.4053,-0.4047,-0.4044,-0.4025,-0.4025,-0.4024,-0.4024,0,-0.4361,-0.4327,-0.4326,-0.4287,-0.4278,-0.4284,-0.4252,-0.4252,-0.4227,-0.4224,-0.4221,-0.4183,-0.4174,-0.4141,-0.4123,-0.4107,-0.4118,-0.4105,-0.4126,-0.4121,-0.4143,-0.4141,-0.4216,-0.4223,-0.414,-0.4141,-0.4142,0,-0.4398,-0.4401,-0.4363,-0.4358,-0.4343,-0.4335,-0.4326,-0.4288,-0.428,-0.4253,-0.4257,-0.4244,-0.4232,-0.4219,-0.419,-0.4177,-0.4164,-0.419,-0.4161,-0.4172,-0.4165,-0.4165,-0.4166,-0.4197,-0.4198,-0.4199,-0.42,0,-0.4467,-0.445,-0.4438,-0.4421,-0.4411,-0.4395,-0.4378,-0.4376,-0.4333,-0.4327,-0.4316,-0.4306,-0.4288,-0.4276,-0.4258,-0.4242,-0.4214,-0.4209,-0.4213,-0.4224,-0.4236,-0.423,-0.4143,-0.4208,-0.4207,-0.4206,-0.4206,-0.4206,-0.4523,-0.4524,-0.4498,-0.4486,-0.4468,-0.4452,-0.445,-0.4425,-0.4415,-0.4397,-0.4375,-0.4367,-0.4343,-0.4315,-0.4301,-0.4295,-0.428,-0.4286,-0.4287,-0.4289,-0.4294,-0.4236,-0.4292,-0.4291,-0.4291,-0.4291,-0.4291,0,-0.4591,-0.4572,-0.4561,-0.4537,-0.4528,-0.4501,-0.448,-0.4475,-0.4468,-0.4447,-0.4436,-0.4423,-0.4412,-0.4382,-0.4367,-0.4368,-0.4355,-0.4366,-0.4366,-0.4363,-0.4308,-0.4307,-0.4376,-0.4376,-0.4376,-0.4376,-0.4376,-0.4376,-0.4626,-0.4626,-0.4606,-0.4597,-0.4578,-0.4569,-0.4559,-0.4545,-0.4528,-0.4516,-0.4505,-0.4486,-0.4462,-0.4445,-0.4433,-0.4425,-0.4422,-0.4437,-0.4424,-0.4375,-0.4366,-0.4359,-0.4357,-0.4436,-0.4436,-0.4479,-0.4479,-0.448]},{"header":{"parameterUnit":"m.s-1","parameterCategory":1,"la1":30.2991,"la2":30.254,"lo1":-89.0895,"lo2":-89.0444,"dy":0.0017,"dx":0.0017,"nx":28,"ny":28,"refTime":"2023-11-23T03:00:00:Z","depth":0,"parameterNumber":3,"parameterNumberName":"V-component_of_WINDS"},"data":[0,0,0,0,0,0,0,0,0,0,0,0,0,0,0,0,0,0,0,0,0,0,0,0,0,0,0,0,0,0,0,0,0,0,0,0,0,0,0,0,0,0,0,0,0,0,0,0,0,0,0,0,0,0,0,0,0,0,-0.8218,-0.8218,0,-0.8291,-0.8291,-0.8292,-0.8326,-0.8326,-0.8326,-0.8326,-0.8402,-0.8404,-0.8406,0,0,0,0,0,0,0,0,0,0,0,0,0,-0.8108,-0.811,-0.8217,-0.8218,-0.8219,-0.829,-0.8291,-0.8292,-0.8326,-0.8326,-0.8326,-0.8326,-0.8401,-0.8404,-0.8406,0,0,0,0,0,0,0,0,0,0,0,0,0,-0.8166,-0.8111,-0.8217,-0.8245,-0.8248,-0.829,-0.8291,-0.8293,-0.8327,-0.8326,-0.8326,-0.8326,-0.8401,-0.8404,-0.8407,-0.8427,0,0,-0.8416,-0.8418,0,0,0,0,0,0,0,0,-0.8163,-0.817,-0.824,-0.8243,-0.8247,-0.8299,-0.8281,-0.8338,-0.8327,-0.8297,-0.8326,-0.8326,-0.8368,-0.8374,-0.8388,-0.8431,-0.8434,-0.8416,-0.8418,-0.842,-0.8421,0,0,0,0,0,0,0,-0.8159,-0.8167,-0.8246,-0.8241,-0.8245,-0.8254,-0.8262,-0.8292,-0.8332,-0.8299,-0.8302,-0.831,-0.837,-0.8385,-0.839,-0.8435,-0.8416,-0.8419,-0.8421,-0.8422,-0.8499,-0.8499,0,0,0,0,0,0,-0.815,-0.8163,-0.8244,-0.8249,-0.8204,-0.8256,-0.8265,-0.8283,-0.8332,-0.8339,-0.831,-0.8311,-0.8379,-0.8386,-0.8393,-0.842,-0.842,-0.8423,-0.8424,-0.8499,-0.8499,-0.8499,0,0,0,0,0,0,-0.8148,-0.8157,-0.8241,-0.8207,-0.8218,-0.8258,-0.8277,-0.8284,-0.8299,-0.834,-0.8347,-0.8318,-0.838,-0.8388,-0.8418,-0.8423,-0.8424,-0.8427,-0.8499,-0.8499,-0.8499,-0.8475,0,0,0,0,0,0,-0.8144,-0.8156,-0.8164,-0.8207,-0.822,-0.8265,-0.8278,-0.8285,-0.8304,-0.8306,-0.8349,-0.8356,-0.838,-0.8414,-0.8421,-0.8427,-0.8429,-0.8498,-0.8499,-0.8499,-0.8476,-0.8474,-0.8473,0,0,0,0,0,-0.814,-0.8154,-0.8164,-0.8174,-0.8231,-0.8266,-0.8273,-0.8301,-0.8304,-0.8313,-0.8339,-0.8355,-0.8421,-0.8416,-0.8426,-0.8432,-0.8498,-0.8499,-0.8499,-0.8476,-0.8475,-0.8473,0,0,0,0,0,0,-0.8111,-0.816,-0.8172,-0.82,-0.8228,-0.8271,-0.8283,-0.8298,-0.8326,-0.8327,-0.836,-0.837,-0.8397,-0.8418,-0.8411,-0.8455,-0.8461,-0.8463,-0.844,-0.844,-0.8438,-0.8433,-0.8432,0,0,0,0,0,-0.8108,-0.8132,-0.8174,-0.8195,-0.8208,-0.8243,-0.8259,-0.8278,-0.8309,-0.8321,-0.835,-0.8379,-0.8407,-0.8424,-0.8452,-0.8478,-0.8488,-0.8488,-0.8487,-0.8486,-0.8487,-0.8503,-0.8503,-0.8501,-0.8501,-0.8501,0,0,-0.8102,-0.8132,-0.8145,-0.819,-0.8214,-0.8238,-0.8253,-0.8278,-0.8297,-0.8325,-0.8355,-0.8377,-0.8412,-0.844,-0.8455,-0.8459,-0.849,-0.8486,-0.8485,-0.8487,-0.8504,-0.8504,-0.8504,-0.8501,-0.8501,-0.8501,0,0,-0.8104,-0.8129,-0.8149,-0.8172,-0.8209,-0.8232,-0.8236,-0.8277,-0.8292,-0.8323,-0.8345,-0.8367,-0.8414,-0.8438,-0.8457,-0.8467,-0.8482,-0.8475,-0.8469,-0.8484,-0.8485,-0.8485,-0.8489,-0.849,-0.8476,-0.8476,-0.8476,0,-0.8092,-0.8129,-0.8157,-0.8181,-0.82,-0.8226,-0.8247,-0.8269,-0.8312,-0.8325,-0.8329,-0.8388,-0.8414,-0.8448,-0.8451,-0.8464,-0.8471,-0.847,-0.8482,-0.8483,-0.8484,-0.8488,-0.8489,-0.8475,-0.8475,-0.8475,-0.8475,0,-0.8113,-0.8138,-0.815,-0.8191,-0.8212,-0.8234,-0.8265,-0.8283,-0.8299,-0.8322,-0.8353,-0.8384,-0.8419,-0.8428,-0.8445,-0.8465,-0.8466,-0.8476,-0.8483,-0.8482,-0.8487,-0.8488,-0.8473,-0.8474,-0.8474,-0.8475,0,0,-0.8099,-0.8154,-0.8158,-0.8177,-0.8219,-0.8239,-0.8263,-0.8296,-0.831,-0.8339,-0.836,-0.8398,-0.8407,-0.8428,-0.8448,-0.8461,-0.8467,-0.8469,-0.847,-0.8467,-0.8491,-0.8484,-0.8486,-0.8477,-0.8478,-0.8478,-0.8489,0,-0.8106,-0.8149,-0.8175,-0.8207,-0.8231,-0.8256,-0.8277,-0.8304,-0.8326,-0.835,-0.8374,-0.8401,-0.841,-0.8423,-0.8437,-0.8463,-0.8472,-0.8463,-0.8497,-0.8498,-0.8488,-0.8488,-0.8481,-0.8489,-0.849,-0.8491,-0.8491,0,-0.8121,-0.8149,-0.8183,-0.8222,-0.8233,-0.8251,-0.8284,-0.8306,-0.8338,-0.8352,-0.8375,-0.8395,-0.8421,-0.8425,-0.8462,-0.8454,-0.847,-0.8485,-0.8486,-0.8491,-0.8495,-0.8493,-0.8493,-0.8494,-0.8494,-0.8494,-0.8493,0,-0.8107,-0.8154,-0.818,-0.8196,-0.8241,-0.8253,-0.8273,-0.8305,-0.8323,-0.8352,-0.8364,-0.8395,-0.8412,-0.8436,-0.8464,-0.8464,-0.8497,-0.8504,-0.8511,-0.851,-0.8517,-0.8516,-0.8519,-0.8526,-0.8526,-0.8526,-0.8526,0,-0.8113,-0.8134,-0.8175,-0.8191,-0.8215,-0.8244,-0.8267,-0.8289,-0.8317,-0.8338,-0.8361,-0.8381,-0.8416,-0.844,-0.8462,-0.8489,-0.8496,-0.8509,-0.8515,-0.8507,-0.8506,-0.8518,-0.8518,-0.8526,-0.8526,-0.8526,-0.8526,0,-0.8103,-0.8131,-0.8162,-0.8202,-0.8213,-0.8228,-0.8263,-0.828,-0.8303,-0.833,-0.8338,-0.8373,-0.8402,-0.8432,-0.8472,-0.8486,-0.8513,-0.852,-0.8502,-0.8505,-0.851,-0.851,-0.8522,-0.8526,-0.8529,-0.8529,-0.8529,0,-0.8105,-0.8121,-0.8163,-0.8179,-0.8197,-0.8223,-0.8241,-0.8271,-0.8289,-0.8327,-0.8339,-0.837,-0.8397,-0.8443,-0.8472,-0.8503,-0.8511,-0.8514,-0.8516,-0.8508,-0.8512,-0.8511,-0.8513,-0.8513,-0.8513,-0.8512,-0.8512,0,-0.8105,-0.8118,-0.8144,-0.8175,-0.8196,-0.8222,-0.8249,-0.826,-0.8295,-0.8315,-0.8345,-0.8365,-0.8405,-0.8436,-0.847,-0.8491,-0.8507,-0.8511,-0.8514,-0.8507,-0.8496,-0.8502,-0.85,-0.8511,-0.8511,-0.8511,-0.8511,-0.8511,-0.8101,-0.8117,-0.8149,-0.8177,-0.82,-0.8224,-0.8242,-0.8266,-0.8292,-0.8327,-0.8343,-0.8373,-0.8404,-0.8452,-0.8472,-0.8496,-0.8501,-0.8505,-0.8507,-0.8507,-0.8506,-0.8492,-0.8503,-0.8503,-0.8503,-0.8503,-0.8503,0,-0.8104,-0.8125,-0.815,-0.8187,-0.8209,-0.8222,-0.8252,-0.8269,-0.8296,-0.8323,-0.8349,-0.8383,-0.8413,-0.8445,-0.8476,-0.849,-0.8498,-0.8497,-0.8497,-0.8501,-0.85,-0.8494,-0.849,-0.849,-0.849,-0.849,-0.849,-0.849,-0.8107,-0.8134,-0.8151,-0.8189,-0.8211,-0.8241,-0.8257,-0.8279,-0.8302,-0.8339,-0.8363,-0.8384,-0.8413,-0.8447,-0.8475,-0.8484,-0.8494,-0.8491,-0.8502,-0.85,-0.8501,-0.8502,-0.8497,-0.8493,-0.8493,-0.8501,-0.8501,-0.8501]}]]